Theta_e
290 286 286 286 289 289 287 289 291 290 287 284 284 284 283 283 284 284 284 288 288 287 286 288 286 284 287 286 287 288 288 288 287 286 286 286 286 286 286 286 286 286 286 287 288 288 288 289 290 290 291 291 292 292 292 292 293 293 294 295 295 297 298 299 300 300 302 302 300 299 298 297 297 297 297 297 297 296 296 297 298 298 298 299 300 301
291 286 285 289 289 289 289 289 288 286 286 286 285 283 283 282 284 286 287 287 287 287 283 283 283 286 287 286 287 287 287 285 285 286 286 286 286 286 285 285 285 286 286 287 287 287 287 288 288 289 290 290 289 290 291 291 291 292 292 293 293 295 296 297 298 298 298 298 299 297 296 295 295 295 294 294 294 294 294 294 295 295 295 295 296 297
286 285 289 290 290 286 286 286 286 286 286 284 284 283 282 284 283 286 286 285 286 287 285 283 284 287 285 285 286 286 285 286 286 286 285 285 284 285 285 285 284 285 285 285 286 286 286 287 287 288 288 288 289 289 289 290 291 291 291 291 292 292 293 294 295 296 295 296 296 296 296 295 294 295 294 293 293 293 292 291 292 292 293 293 293 293
286 285 289 292 288 289 287 285 285 285 285 283 283 282 283 283 284 282 284 284 287 285 284 283 284 287 283 285 285 286 286 285 285 286 285 285 284 284 284 284 284 283 284 284 284 284 285 286 286 287 287 287 288 288 288 289 289 290 290 290 291 291 292 292 293 293 293 294 294 294 294 293 293 291 292 290 290 289 288 287 288 288 289 289 290 290
290 289 289 288 288 288 288 285 284 283 284 282 284 284 283 284 284 285 285 285 284 286 282 284 284 284 282 284 283 284 286 285 285 285 285 285 285 285 285 284 284 283 283 283 283 284 284 284 285 285 286 286 286 286 287 287 288 289 289 290 290 290 291 291 292 292 292 292 291 291 291 290 289 288 287 287 286 286 286 286 285 286 286 287 287 287
287 290 288 287 286 286 286 285 284 286 282 281 283 286 287 286 286 283 283 285 282 281 282 283 279 276 278 280 283 283 283 283 284 283 283 284 284 284 283 283 284 284 283 283 283 283 283 284 284 284 285 285 285 285 286 286 287 288 288 288 289 289 289 290 290 290 290 289 288 288 287 285 284 283 284 283 283 284 284 284 285 285 286 286 286 286
288 290 291 290 286 285 285 285 283 287 282 283 285 286 288 286 285 284 283 284 278 279 284 282 281 275 280 281 282 283 282 282 283 282 283 283 283 282 282 282 282 282 283 283 283 283 283 283 283 283 283 284 284 284 285 286 286 286 287 287 287 287 288 288 288 288 288 287 286 285 284 284 283 282 283 283 284 283 284 285 284 285 285 285 285 285
288 287 287 287 286 285 284 284 284 287 285 282 284 283 285 284 284 283 283 284 280 280 282 281 283 278 277 283 283 283 282 281 282 282 282 283 282 282 282 282 282 282 281 282 282 282 282 282 282 282 282 283 283 283 284 284 285 285 285 285 286 286 286 286 287 287 287 286 285 285 284 284 283 283 283 283 284 284 285 284 284 284 284 285 285 285
288 286 286 286 286 284 286 286 285 287 286 283 285 283 283 284 283 282 283 281 280 282 279 278 282 280 276 279 281 282 281 281 281 281 282 282 282 282 282 282 282 282 282 281 281 281 281 281 281 282 282 282 282 283 283 283 283 284 284 285 285 285 285 285 286 286 286 286 285 284 284 283 284 284 283 284 285 284 284 284 284 284 284 284 285 285
287 289 287 288 286 285 285 284 285 289 286 285 283 283 282 282 281 280 278 281 278 279 274 278 281 278 278 278 280 281 281 281 281 282 282 282 282 282 282 282 282 282 281 282 281 281 281 281 281 281 282 281 282 282 284 283 283 283 284 284 284 284 284 285 285 285 285 285 285 284 284 283 283 283 283 284 283 283 283 283 283 283 283 284 284 284
287 289 289 287 286 286 284 284 284 286 286 284 283 283 283 280 279 278 278 276 278 272 277 281 281 282 277 280 280 280 282 281 282 281 281 281 282 282 282 281 281 281 281 281 281 280 280 281 281 281 281 281 281 281 282 283 283 283 283 283 283 283 284 284 284 285 284 284 284 284 284 283 283 283 283 283 283 283 283 282 282 283 283 283 283 284
286 287 287 286 288 286 285 285 283 283 283 284 285 281 283 282 278 276 269 275 272 271 274 277 278 281 275 277 280 280 281 281 284 282 282 281 281 281 281 281 281 281 281 281 281 280 280 280 280 280 280 280 281 281 282 282 282 283 283 283 283 283 283 283 284 284 284 284 284 284 284 283 284 283 283 283 283 283 283 283 283 283 284 284 285 285
285 286 285 287 288 289 283 284 284 283 283 284 282 283 278 273 272 271 269 273 272 273 278 278 278 280 280 281 282 281 280 281 280 283 283 282 282 282 281 282 281 281 281 281 280 280 280 280 279 279 280 280 280 281 281 281 282 282 283 283 283 282 283 283 283 283 283 284 283 284 283 284 284 284 283 283 283 283 284 284 283 284 283 284 284 284
282 282 285 287 288 288 288 285 282 282 282 283 284 279 274 272 267 265 267 265 268 273 277 280 281 278 279 282 280 280 281 281 282 282 284 283 283 282 282 281 281 281 280 280 280 280 280 279 280 280 280 280 280 280 281 281 282 282 283 283 283 282 282 283 283 283 283 283 283 283 283 283 283 283 283 283 283 282 282 283 283 283 283 283 284 284
276 280 284 286 285 287 290 290 287 281 282 284 282 284 281 272 265 270 264 272 274 273 276 277 275 271 276 281 278 280 280 280 280 282 284 283 282 281 280 280 280 280 280 279 279 280 280 280 280 280 280 280 280 280 281 280 281 281 282 282 282 282 282 283 283 283 282 282 282 283 283 283 283 283 283 283 284 283 283 284 283 284 284 284 284 284
281 280 284 286 286 287 287 286 284 283 283 281 281 282 279 280 279 277 269 267 266 270 271 273 276 277 281 279 280 279 279 280 280 281 282 281 281 280 280 281 280 280 280 280 279 280 280 280 280 280 280 281 281 281 281 281 281 282 281 282 282 282 282 283 284 284 284 283 283 282 282 282 283 284 284 284 284 284 283 283 283 282 283 284 284 283
281 280 284 285 285 285 286 285 287 286 282 282 283 279 281 283 280 271 271 269 270 269 274 269 277 280 280 280 278 278 278 279 279 280 280 280 280 280 281 280 279 280 280 279 280 279 280 280 280 280 280 280 281 281 281 281 281 281 281 282 282 282 282 282 283 283 283 283 283 283 282 282 282 282 282 282 282 282 282 282 281 281 281 281 282 282
281 279 283 285 286 286 284 285 284 284 285 283 278 282 283 283 282 281 275 270 266 270 273 271 276 278 279 275 278 279 278 278 279 279 280 280 280 280 280 280 280 280 280 280 279 279 279 279 280 280 281 280 280 280 280 281 281 281 281 281 282 282 282 281 282 282 282 282 282 282 282 282 282 282 282 282 281 282 282 281 281 281 280 280 281 280
287 282 283 284 285 286 284 287 286 286 286 282 281 283 285 278 278 278 273 272 269 268 269 271 274 275 277 280 278 279 278 279 278 279 279 280 279 280 280 280 280 280 279 279 279 279 280 280 280 281 281 281 281 281 281 282 282 282 282 283 283 283 283 283 283 282 283 283 284 283 283 283 283 283 282 282 282 282 281 281 281 280 281 281 281 280
289 285 284 286 285 287 286 285 281 283 286 285 286 284 284 283 280 277 279 274 272 268 264 271 270 274 279 280 281 282 281 280 279 279 279 281 281 281 281 281 280 280 280 280 280 280 280 281 281 281 281 281 282 282 283 283 282 282 284 284 284 284 284 284 283 283 282 282 283 283 282 282 281 281 280 280 280 280 279 279 279 279 279 279 280 279
287 288 280 284 286 285 283 284 284 285 283 283 284 282 285 280 283 281 279 276 276 264 267 269 274 273 276 279 282 283 282 281 281 281 281 282 282 282 282 281 281 281 281 280 280 281 281 281 281 281 281 282 282 283 284 283 283 284 284 283 282 282 281 281 281 281 281 281 280 280 278 278 278 278 278 278 278 277 277 277 277 277 277 277 277 277
285 285 281 281 283 282 284 285 287 287 288 286 286 284 285 281 279 278 278 278 271 274 271 265 275 276 278 280 281 280 280 282 282 282 282 282 283 283 283 282 281 281 281 281 281 281 281 281 282 282 282 281 281 282 282 283 283 283 282 281 281 280 280 281 281 281 281 280 280 279 278 278 278 278 278 277 277 276 277 276 276 277 276 276 276 275
290 285 284 281 282 285 285 287 285 285 285 286 286 285 287 286 284 279 277 276 272 276 274 272 269 279 280 280 280 280 280 282 283 282 282 283 283 283 283 282 282 282 281 281 281 281 282 282 282 282 282 282 282 283 283 283 283 282 282 281 281 280 279 279 279 279 279 278 277 276 276 276 276 276 275 275 275 274 275 275 275 276 274 275 274 274
292 286 281 283 282 281 283 282 283 282 285 286 285 281 282 283 283 284 283 279 277 271 272 270 274 279 283 280 279 279 279 280 282 282 282 283 283 283 283 282 282 282 281 281 282 282 282 281 282 282 282 282 282 282 282 282 280 279 279 279 279 278 278 278 278 277 277 276 275 275 274 274 274 274 274 273 274 273 274 274 273 274 273 273 273 272
286 286 285 281 278 280 280 283 284 284 284 282 281 281 282 281 281 278 276 275 277 277 278 278 275 281 282 278 280 279 280 280 281 282 283 283 283 283 282 282 282 283 283 282 282 283 282 281 282 282 282 282 281 280 279 279 278 277 277 277 277 277 276 276 276 276 275 274 274 273 273 273 273 273 273 272 273 272 273 272 272 272 271 271 271 271
288 285 284 279 277 275 274 273 274 277 282 280 278 279 281 283 281 281 279 278 278 282 280 279 281 284 281 279 281 281 280 280 281 281 281 282 282 283 282 283 284 284 284 282 281 281 281 282 281 281 281 280 279 279 278 277 277 277 276 276 276 276 275 275 275 275 274 274 273 273 272 272 273 273 272 272 272 272 272 271 271 271 271 271 270 270
287 286 285 285 283 281 281 280 282 282 280 281 280 279 281 280 282 283 280 279 280 281 280 283 283 282 282 282 281 279 277 280 281 281 282 282 282 283 284 285 284 283 282 281 281 281 281 280 281 281 281 280 278 278 277 277 277 276 275 275 275 274 274 274 274 274 273 273 272 272 272 272 272 272 271 271 271 271 271 270 270 269 269 269 269 268
285 285 286 285 286 286 285 279 282 285 284 284 284 285 283 283 283 283 282 281 283 280 278 282 279 279 281 281 282 280 281 280 281 281 281 282 283 283 284 283 284 281 280 280 280 281 281 281 281 281 280 278 278 277 277 277 276 276 275 274 274 273 274 274 273 273 272 272 272 271 271 271 271 271 271 271 270 270 269 269 268 268 268 268 267 267
283 283 286 286 285 287 282 283 283 284 284 284 285 286 286 285 283 282 283 285 282 281 279 283 282 282 283 283 283 283 283 283 283 282 283 284 283 282 282 282 282 281 281 281 281 281 281 281 281 281 279 278 277 277 277 276 275 274 274 273 273 272 272 272 272 272 271 271 271 271 271 271 271 271 270 269 269 268 268 267 267 267 266 266 266 266
285 280 280 284 283 283 280 280 280 281 280 280 281 282 284 284 282 283 284 284 283 283 284 281 280 281 283 281 281 283 282 282 281 282 282 283 283 283 282 281 282 281 281 281 281 282 282 281 281 280 279 277 277 277 277 276 275 274 273 273 272 272 272 271 271 271 271 270 270 270 270 270 270 269 269 268 267 267 266 265 265 265 265 264 265 264
287 281 282 279 279 278 277 278 279 278 279 279 281 281 281 280 279 280 280 280 281 280 281 280 280 280 285 282 281 280 278 280 281 280 282 282 282 281 281 281 282 281 281 281 281 282 281 281 280 279 278 278 277 278 277 276 275 274 273 272 271 271 271 271 270 270 269 270 269 269 269 269 268 267 266 266 266 264 264 264 263 262 263 263 262 263
285 279 277 278 279 278 277 277 277 278 278 277 278 280 280 278 277 278 277 280 279 278 279 277 277 279 281 279 281 278 278 280 282 282 280 280 280 280 281 282 281 281 281 281 281 281 280 280 280 279 278 278 278 278 277 276 274 273 272 271 271 271 270 270 269 269 268 268 268 268 268 267 266 265 264 264 263 263 262 262 261 261 261 261 261 262
281 278 276 275 276 278 275 275 275 275 277 277 279 281 281 280 282 278 276 278 281 282 277 276 279 284 280 279 279 279 278 279 279 279 279 279 279 279 280 281 282 281 281 280 280 280 280 280 280 280 279 278 278 278 278 276 274 273 272 271 271 270 269 268 268 268 267 267 266 266 266 265 263 263 262 262 261 261 261 260 261 260 260 260 260 261
279 281 279 280 278 273 271 272 274 274 270 274 280 280 281 279 279 277 278 280 279 281 277 280 279 276 274 276 277 278 278 277 279 279 279 280 279 278 279 280 281 281 281 280 280 280 280 280 280 279 279 279 279 278 277 275 275 273 272 271 269 268 268 267 267 266 266 265 266 265 265 264 262 262 262 261 261 261 260 259 259 259 260 260 261 261
281 282 281 279 277 272 273 274 273 269 273 279 276 278 279 278 278 278 279 278 276 274 277 277 278 277 278 279 279 278 277 276 276 276 277 277 279 279 280 279 280 280 280 279 278 278 279 279 279 278 277 277 277 276 274 273 272 271 269 269 268 267 267 266 266 264 266 265 265 263 262 263 262 261 261 260 260 259 259 259 259 260 260 259 260 260
280 281 278 276 275 273 271 274 269 271 279 277 276 274 276 275 275 275 273 275 275 276 277 277 278 278 279 279 278 277 276 276 274 275 276 276 277 279 279 279 279 279 279 279 279 279 279 278 278 278 278 277 276 274 274 272 271 269 268 267 267 266 265 264 263 264 264 263 263 262 264 262 261 260 260 260 259 258 260 259 259 259 260 259 259 258
284 281 280 276 280 271 274 273 275 279 278 280 275 273 276 274 274 274 270 275 278 276 276 276 277 278 277 276 276 274 274 274 275 277 275 275 275 276 278 279 279 279 280 280 279 279 279 279 278 278 276 275 274 273 272 270 269 268 266 265 265 264 264 263 262 264 264 263 262 262 262 262 261 260 259 259 259 258 258 260 259 259 258 258 259 259
281 281 280 279 276 279 273 272 271 271 270 276 281 276 278 277 277 276 275 269 273 270 275 276 276 277 275 275 273 273 273 274 273 276 276 275 275 275 276 277 276 277 278 277 277 277 277 277 276 275 275 273 272 271 269 268 267 266 265 264 264 263 263 262 263 263 263 263 261 262 262 262 260 259 259 257 257 257 259 258 258 258 257 258 258 258
281 281 279 280 277 274 273 272 271 270 272 279 274 275 275 275 276 274 269 266 273 272 273 275 276 274 275 274 272 273 271 267 270 274 278 276 275 275 276 276 276 275 275 276 277 277 276 276 275 274 273 272 270 268 267 266 266 266 265 264 263 263 263 263 263 263 262 263 262 262 261 260 259 259 258 257 258 257 257 258 258 258 257 257 257 257
276 276 278 276 275 277 275 273 270 273 272 273 270 273 274 274 276 271 259 261 266 272 271 274 275 274 273 273 273 272 273 265 270 275 276 276 277 276 276 277 275 275 274 275 276 276 276 274 272 271 271 271 270 267 266 265 265 265 265 264 263 263 263 263 262 263 262 262 262 260 259 259 259 258 257 258 257 256 257 257 257 257 257 257 257 257
275 274 276 273 277 277 278 274 274 273 276 271 272 273 273 272 271 263 265 265 269 271 271 274 275 275 274 272 273 270 274 277 277 277 275 275 276 276 275 274 275 275 275 275 276 277 274 273 274 273 272 271 268 265 265 265 265 265 264 263 263 263 263 263 262 262 262 261 260 259 258 258 258 256 256 256 256 257 256 256 257 257 256 256 256 256
268 271 271 275 273 274 276 273 273 277 281 274 273 275 275 274 264 267 272 272 275 274 273 275 275 274 274 275 274 276 277 278 277 276 274 273 275 276 276 274 274 273 273 274 275 274 273 272 271 269 268 267 266 265 265 265 266 265 263 262 263 263 262 262 262 261 259 259 259 258 257 256 255 256 255 254 254 254 256 255 255 256 255 256 255 255
269 269 268 272 274 272 272 270 270 266 276 277 276 274 275 269 270 273 273 275 275 276 275 274 275 275 275 274 275 276 276 275 275 275 275 274 274 275 275 274 274 274 273 272 272 271 272 271 270 270 268 266 264 265 265 264 264 263 262 262 263 262 262 261 260 260 259 258 257 256 255 254 253 253 253 253 253 253 254 255 254 254 254 254 255 255
271 263 260 266 275 267 271 268 269 275 275 277 278 273 273 278 276 275 276 275 275 274 275 276 275 275 275 276 276 275 275 275 274 274 273 272 273 274 273 273 273 273 272 273 274 272 271 272 271 269 266 264 264 264 264 264 264 262 261 263 262 261 260 260 258 258 257 256 255 254 254 253 253 252 252 253 254 253 253 253 253 253 253 253 254 254
274 270 269 267 271 269 268 274 275 275 277 278 279 277 279 281 277 276 277 277 277 275 274 274 276 275 275 276 276 276 274 274 275 276 274 275 274 274 274 274 274 274 274 274 273 271 271 272 270 268 264 263 262 262 262 262 263 260 261 261 261 261 259 258 255 255 254 252 252 252 251 251 251 251 251 252 252 252 254 253 252 254 253 252 254 254
271 273 271 270 269 273 273 274 274 274 276 277 278 277 278 278 276 275 276 277 276 276 276 276 276 276 275 274 274 273 274 275 275 274 273 274 274 274 273 273 272 272 271 271 270 269 270 267 265 265 263 262 261 261 260 259 261 261 260 259 260 259 258 256 254 254 253 252 251 252 251 251 252 251 252 252 252 253 253 253 253 253 254 253 254 254
272 272 270 270 270 269 267 272 274 275 275 277 279 279 276 276 277 277 276 277 278 276 275 276 277 276 275 274 275 276 276 275 275 275 274 273 273 274 273 274 274 273 273 272 272 268 267 265 265 264 263 262 260 260 259 258 257 259 258 258 259 258 255 254 254 254 253 252 252 251 250 250 252 252 252 251 251 252 253 253 253 253 254 253 253 253
270 274 271 272 270 270 269 272 273 273 273 275 277 277 278 279 278 276 277 277 277 276 275 276 274 273 272 271 274 274 275 275 274 274 274 274 274 274 273 273 274 272 271 271 268 267 265 266 267 265 264 264 262 260 259 258 258 257 257 257 258 255 253 255 254 254 253 252 251 251 250 251 255 254 252 252 251 252 252 252 253 253 253 253 254 254
272 274 265 267 270 269 273 273 272 272 273 274 274 275 277 278 279 276 276 276 274 274 274 273 273 275 274 276 274 274 273 274 274 274 274 275 274 273 273 274 274 274 272 270 267 266 268 267 267 266 264 265 262 260 259 257 257 256 257 258 255 254 254 255 254 254 250 250 249 251 253 252 251 252 251 252 251 252 253 253 253 254 255 256 256 257
271 271 271 269 266 264 267 272 273 267 268 275 275 277 277 278 277 276 275 273 273 274 274 274 274 273 274 275 274 274 273 275 275 274 273 274 275 275 274 274 273 271 270 269 267 265 266 265 266 266 264 263 260 259 258 257 257 256 258 256 254 254 254 254 253 251 251 251 250 250 251 251 251 250 252 251 252 252 253 257 261 260 259 259 264 267
273 274 273 270 272 267 272 274 276 277 276 276 276 277 278 277 276 276 276 276 275 275 276 275 275 274 273 273 273 274 274 275 275 274 273 274 274 275 275 274 272 270 270 266 264 263 264 265 263 262 261 261 259 259 258 258 257 256 256 256 255 255 254 253 253 252 252 252 251 252 252 250 251 252 251 251 252 252 253 253 255 261 264 265 265 267
Wind_Speed
1 5 6 8 11 7 5 10 12 5 2 2 2 2 4 5 5 4 3 6 0 3 7 9 5 4 7 3 4 4 4 7 6 6 5 5 5 5 5 5 5 6 6 5 5 7 8 9 9 8 8 8 10 13 12 13 13 12 10 13 13 9 11 10 9 9 9 9 9 13 13 11 8 9 11 13 11 10 9 12 13 13 11 12 13 13
3 6 8 10 7 8 11 7 2 1 1 2 3 2 6 3 9 4 3 2 1 3 4 0 2 7 6 2 4 3 5 6 4 4 5 4 4 4 5 6 6 3 3 7 10 11 10 10 10 9 9 11 14 12 12 12 10 10 12 13 10 10 12 12 10 9 11 8 9 11 8 7 8 9 9 9 10 11 11 13 13 12 12 13 13 11
2 8 9 11 3 3 2 4 4 5 6 1 4 2 3 8 4 7 5 3 2 2 8 4 4 9 2 2 4 5 5 3 4 3 2 3 4 4 5 5 5 6 7 7 8 8 9 10 10 8 9 10 8 8 10 8 11 12 11 10 10 10 10 10 9 11 11 9 9 10 7 9 10 10 10 10 9 10 10 11 11 12 11 10 10 11
4 5 14 9 2 3 0 2 3 1 1 5 2 2 10 2 1 6 1 2 2 1 2 1 5 9 2 4 5 3 2 3 4 5 5 4 4 5 4 3 4 5 6 8 8 8 9 8 8 8 10 9 9 9 10 11 11 9 10 10 11 10 10 10 9 9 8 10 9 10 11 12 12 8 7 11 11 12 15 15 12 12 11 12 11 11
10 2 1 3 5 5 6 2 4 3 7 2 5 5 5 3 5 8 5 2 1 0 1 2 5 7 1 2 1 2 3 4 3 5 5 4 4 3 3 5 5 5 5 6 7 8 8 9 8 8 8 8 10 9 9 9 8 7 9 9 10 10 10 9 9 9 7 8 8 7 9 8 9 11 11 13 13 11 10 11 13 11 10 11 11 11
8 7 3 4 1 4 4 4 6 6 6 2 6 11 8 6 8 4 3 4 6 3 3 2 4 3 2 3 4 4 1 2 1 5 4 3 4 4 5 4 4 4 4 4 4 5 5 5 6 8 9 9 7 8 6 5 6 8 8 9 10 10 10 10 9 9 11 11 11 11 12 12 12 12 12 11 9 10 11 9 6 11 11 11 12 12
6 1 4 6 4 3 5 5 4 8 4 0 6 8 11 7 3 2 1 2 2 1 1 2 1 6 6 4 4 4 3 3 2 3 3 3 3 3 3 3 3 3 4 4 5 5 5 6 6 8 8 6 7 6 4 6 7 9 9 10 11 10 9 9 9 9 11 13 13 14 12 10 11 11 7 4 5 7 6 7 10 9 11 11 12 12
2 2 1 1 4 4 3 7 4 9 6 4 2 2 3 4 5 5 4 6 4 1 3 1 2 4 4 8 1 4 5 3 3 2 2 2 2 2 2 2 3 3 3 3 3 3 4 3 4 6 5 4 5 3 4 7 7 10 10 11 12 10 11 9 9 12 10 13 11 13 12 11 10 10 8 6 7 6 6 10 9 8 9 10 10 10
4 2 3 3 2 4 8 3 5 8 7 3 0 5 4 6 5 4 4 4 0 1 6 4 0 1 3 5 1 3 4 1 1 3 2 2 1 1 1 2 2 2 3 2 3 3 3 3 5 4 4 3 3 3 5 6 6 7 9 11 12 12 11 9 11 12 11 11 11 11 10 12 8 8 7 5 7 8 7 10 8 9 8 8 9 9
1 1 4 7 6 7 3 1 6 11 5 1 5 7 6 6 6 3 4 3 1 1 5 4 2 3 6 5 1 1 2 4 5 6 5 3 3 2 2 2 2 2 3 2 2 2 3 3 3 3 3 3 3 4 4 5 6 7 8 12 14 12 10 9 11 12 12 11 10 12 11 12 8 7 7 8 9 8 7 10 9 8 8 8 8 8
0 4 5 4 5 4 4 2 2 0 1 6 3 6 5 8 4 3 5 2 2 2 6 7 3 5 6 4 6 4 5 3 5 1 2 2 2 2 2 2 2 2 2 2 2 3 3 3 3 3 4 4 4 4 5 6 6 6 8 11 14 9 9 10 10 12 12 10 10 11 10 11 10 8 8 10 9 8 9 9 8 7 6 6 7 7
1 1 0 2 4 3 4 4 3 1 2 4 1 3 3 1 5 3 3 4 1 6 4 1 3 2 7 5 4 4 0 2 8 9 10 7 7 6 4 3 2 2 2 1 2 3 4 4 4 4 5 4 3 4 6 6 5 7 7 11 14 10 9 9 9 11 11 10 11 10 10 10 9 8 9 10 10 8 8 7 7 5 6 7 6 7
3 6 2 3 4 8 3 6 2 3 1 4 5 5 2 4 5 3 2 2 5 5 1 2 2 1 8 7 1 1 2 1 3 2 11 11 9 7 5 4 3 2 2 3 2 3 3 4 4 4 4 4 3 4 5 5 5 6 7 8 14 10 8 9 8 11 10 10 10 9 9 9 8 8 8 8 8 6 7 7 7 7 7 6 7 8
6 2 1 3 2 4 6 5 2 1 1 4 5 5 5 0 1 3 5 2 6 5 3 1 1 2 3 6 1 3 3 2 4 4 5 11 12 10 7 5 4 3 3 2 3 2 3 3 3 3 2 2 2 4 5 5 5 5 6 6 13 8 6 6 8 9 10 9 8 7 8 7 6 6 6 6 7 6 6 6 6 5 5 6 6 6
1 3 5 6 4 2 6 8 9 6 8 7 2 7 7 8 5 5 4 4 3 3 2 4 1 5 4 3 1 5 4 4 3 5 6 6 5 5 4 4 4 4 3 3 3 3 4 3 2 3 2 2 3 4 4 4 4 5 6 7 10 9 6 7 7 7 9 8 7 6 7 7 6 7 7 6 6 7 7 6 7 6 6 6 6 6
5 5 4 2 1 2 8 0 5 6 5 1 3 5 5 7 6 4 3 2 1 3 4 1 5 3 4 0 1 1 1 3 2 5 8 7 5 6 5 6 6 4 4 4 4 3 3 3 2 2 2 3 3 3 4 4 4 6 6 6 7 8 6 6 7 7 7 7 6 6 7 7 6 5 5 5 5 6 7 6 6 6 5 5 5 5
2 2 1 4 2 1 1 2 0 3 5 3 4 4 6 2 6 4 1 1 1 2 9 3 6 3 1 0 1 1 3 2 2 4 7 8 7 6 8 6 5 5 5 5 5 5 5 4 3 4 4 4 3 4 4 4 4 5 6 7 7 6 5 5 5 6 6 6 7 6 6 6 5 6 6 6 6 6 6 6 5 5 5 4 4 5
7 4 1 3 3 1 0 0 3 4 3 8 1 7 1 2 3 3 4 1 4 3 7 3 7 3 2 5 1 1 1 2 3 6 6 6 7 9 9 7 7 8 7 6 5 4 4 4 4 4 4 4 4 5 5 5 4 4 5 6 7 6 6 5 5 6 5 6 6 6 6 6 6 5 5 5 5 5 5 5 4 3 4 5 4 5
3 3 2 1 0 3 1 2 5 2 3 3 2 2 3 3 1 2 4 4 2 5 7 4 1 4 6 5 2 5 7 8 7 6 7 9 10 11 9 9 8 6 5 6 6 6 5 5 5 5 5 4 4 4 4 4 4 4 4 4 6 7 5 5 4 4 5 5 5 6 6 6 5 5 5 5 5 5 6 6 6 6 5 4 5 5
1 2 3 1 2 0 1 3 5 3 1 1 2 2 1 1 1 4 5 2 4 5 2 7 4 7 6 5 12 9 12 12 11 9 13 16 16 13 11 10 10 9 8 8 7 6 6 6 6 6 6 5 5 5 4 5 4 5 4 5 5 4 4 5 5 5 6 5 6 6 5 5 5 5 5 5 5 7 8 7 7 6 6 6 5 6
2 1 4 0 2 1 2 4 8 10 7 1 2 1 0 1 1 3 1 4 3 4 4 4 10 2 4 4 8 8 11 15 17 18 14 13 13 11 9 10 9 9 9 8 8 8 7 6 6 5 5 5 4 4 4 4 5 5 4 4 4 6 5 5 4 5 4 5 5 6 6 5 5 6 5 7 7 8 7 6 7 7 6 5 8 7
2 1 6 0 1 4 6 2 1 4 5 6 10 9 10 6 3 3 9 3 1 2 6 2 13 4 3 1 3 3 4 11 13 13 15 13 13 13 11 9 10 10 9 9 8 7 7 6 6 6 4 4 4 5 5 4 4 4 4 4 5 5 4 4 4 5 5 5 6 7 6 7 7 7 8 8 8 9 8 7 8 7 8 8 7 8
3 2 1 4 6 8 4 0 1 0 1 1 4 5 7 6 4 5 9 5 2 4 4 2 1 10 1 1 0 2 2 6 8 7 8 9 12 12 11 8 7 8 8 8 8 7 7 6 6 7 7 7 7 7 6 4 4 4 4 4 4 7 4 4 4 4 5 6 6 6 5 5 6 5 5 6 6 6 6 5 5 5 6 5 5 4
4 1 0 4 2 4 2 1 2 2 2 0 3 2 3 6 7 9 7 5 6 1 1 1 4 5 1 2 2 3 3 3 5 8 9 8 9 10 10 9 10 9 7 7 7 6 6 6 6 6 6 7 6 6 5 4 4 3 3 4 5 6 4 4 4 5 6 6 6 4 6 6 5 6 6 7 6 6 5 5 5 5 6 5 5 7
3 3 5 2 2 2 2 2 1 1 1 2 3 3 5 3 1 2 5 2 1 8 7 7 14 6 2 2 2 1 1 2 5 6 8 10 9 8 7 5 6 8 9 10 10 8 8 8 9 9 7 7 6 4 4 4 4 4 4 4 6 5 4 4 3 5 4 5 6 6 7 7 6 7 7 7 6 7 7 7 7 7 8 7 8 8
2 2 7 6 10 10 7 4 5 5 7 2 1 2 3 8 7 4 6 3 9 5 8 6 12 2 1 1 1 1 1 1 3 5 4 4 5 7 6 8 12 13 13 8 7 8 11 10 8 6 6 6 6 6 5 4 5 4 5 4 4 5 4 3 3 3 5 5 7 6 7 6 6 7 7 6 6 6 6 7 6 6 5 6 6 6
2 1 2 6 8 11 8 1 2 3 3 5 2 2 4 3 3 3 3 3 12 2 7 10 9 4 2 1 3 2 2 4 6 5 7 6 6 8 10 13 12 8 6 9 10 8 7 6 9 9 7 6 6 5 5 6 5 5 5 5 3 3 4 3 4 5 6 6 6 6 6 5 5 5 5 5 5 5 5 5 5 5 6 6 6 6
2 2 8 9 10 10 2 5 2 3 3 4 4 5 6 6 7 7 9 9 3 3 12 2 6 2 4 3 5 4 3 4 4 3 4 5 7 10 11 7 4 4 5 6 8 10 11 11 9 9 9 7 6 5 5 4 6 7 7 7 4 3 3 4 5 6 6 5 6 5 5 4 3 4 4 4 4 4 5 5 5 5 5 5 6 5
6 5 4 6 9 10 1 2 1 2 3 3 6 8 10 10 7 11 10 10 5 6 11 3 5 3 5 6 7 6 7 7 7 9 11 10 4 3 3 5 7 8 8 9 10 10 11 12 12 10 8 8 6 7 6 6 5 4 4 4 4 4 4 4 6 6 6 5 5 3 3 3 3 4 3 4 3 4 4 4 4 4 4 3 4 4
2 4 4 4 7 4 0 3 1 4 1 1 6 9 11 9 10 9 11 6 10 11 5 1 4 8 7 3 7 7 5 5 3 2 0 2 5 6 5 5 8 9 9 10 11 12 13 12 10 9 9 8 9 8 8 7 7 7 7 6 4 4 3 5 5 6 5 5 3 2 2 2 3 3 2 2 2 3 2 2 3 3 3 3 3 3
4 4 7 1 2 3 2 1 2 2 1 4 8 11 10 2 3 7 4 2 1 5 7 8 7 13 6 4 6 2 1 1 2 3 6 5 3 5 7 8 8 8 8 9 9 10 10 9 8 7 9 10 10 11 9 9 8 6 5 5 5 5 3 4 6 5 5 4 3 2 2 3 2 2 1 2 1 0 1 3 1 1 2 2 2 3
3 4 3 1 4 3 1 3 2 2 1 4 11 17 6 6 6 5 4 5 5 8 5 5 8 11 3 4 1 1 2 5 8 7 4 4 5 5 7 8 7 8 9 10 10 10 10 10 10 11 13 12 11 10 10 9 8 7 7 6 5 5 4 5 5 5 4 4 3 3 3 2 2 1 1 1 0 0 1 1 1 1 2 2 2 3
5 4 4 3 5 4 1 2 5 3 2 8 19 17 10 10 10 0 1 5 10 7 6 8 13 7 2 4 2 4 5 7 5 4 5 5 4 4 7 8 9 8 8 9 10 11 11 13 14 15 12 9 11 12 11 10 9 9 8 7 5 5 5 5 5 5 4 3 4 3 3 2 1 1 0 0 0 1 1 1 2 2 3 4 3 3
3 7 5 5 7 2 1 1 2 3 9 17 1 5 8 9 10 10 10 10 7 7 6 6 7 1 2 3 5 8 7 5 6 7 3 4 4 4 6 6 7 7 7 7 8 10 11 10 9 10 12 13 12 10 8 8 9 7 6 7 6 6 5 6 4 4 4 4 3 3 3 2 1 1 0 1 1 2 3 3 3 3 3 3 3 4
8 7 6 2 5 4 3 4 3 12 16 0 2 2 3 7 8 11 10 6 3 5 6 7 8 6 8 9 9 6 3 3 3 4 4 6 6 6 7 8 8 9 9 7 6 8 9 11 10 8 8 9 9 7 8 6 6 7 6 6 7 4 6 4 5 4 5 4 4 3 2 2 1 2 1 2 2 3 3 3 4 4 4 3 4 5
6 7 3 1 4 4 4 7 7 10 1 2 1 1 3 5 2 2 5 6 7 9 10 8 8 10 12 9 5 2 4 4 3 5 7 7 8 9 8 9 9 7 7 9 10 10 10 11 13 14 13 7 8 7 7 8 7 8 7 5 6 5 4 5 4 5 4 3 3 2 2 1 1 1 1 2 2 3 4 4 4 5 4 4 4 3
8 5 3 3 4 5 5 8 10 6 10 9 3 2 6 5 6 6 7 7 7 6 7 6 11 13 8 5 3 1 1 1 4 8 3 7 7 7 8 8 6 8 9 8 8 9 8 7 7 6 6 7 8 9 8 7 7 8 7 6 5 5 5 5 4 5 5 4 4 2 1 1 1 1 1 1 3 4 4 5 5 4 3 5 4 5
1 7 5 5 4 7 5 4 3 1 11 13 5 1 0 4 6 5 5 6 2 3 7 10 10 11 3 2 0 1 1 1 7 8 3 4 4 6 6 7 5 5 5 4 2 2 4 5 5 5 8 8 7 6 7 7 8 8 7 6 5 5 6 4 5 5 5 4 3 2 1 1 0 1 1 2 3 4 4 3 3 4 3 5 6 6
2 1 1 5 3 3 3 8 7 9 11 6 3 3 1 1 8 5 3 7 5 6 7 8 8 6 5 5 3 4 3 2 7 7 8 4 4 5 5 6 6 5 4 5 6 6 6 6 7 7 7 8 9 7 7 8 9 8 7 6 6 5 6 6 6 6 5 4 3 2 1 0 0 1 1 2 3 3 4 4 4 4 4 4 4 6
2 2 1 3 5 8 6 8 10 4 6 3 4 1 4 4 6 6 2 7 3 7 5 7 8 6 6 5 6 6 7 5 6 8 4 4 6 5 6 7 5 4 4 4 3 4 6 7 9 6 8 11 10 8 9 8 8 7 7 7 6 6 7 7 6 4 4 4 2 2 1 0 0 1 1 3 3 3 4 4 4 4 4 4 4 6
2 1 2 10 9 10 13 8 4 6 3 2 7 4 3 2 6 4 10 6 3 5 5 6 8 7 7 7 7 6 9 7 7 6 1 1 0 3 5 3 3 4 5 5 6 7 8 8 10 13 14 10 10 10 8 8 8 7 6 7 6 7 7 4 4 4 4 3 2 1 0 0 0 2 2 2 3 3 3 3 5 5 4 6 5 5
3 2 5 1 7 9 8 6 8 5 5 7 2 8 7 5 3 10 5 4 9 7 7 10 9 7 9 11 8 7 7 9 6 1 2 3 4 3 1 2 2 2 1 3 6 6 6 6 5 4 4 5 10 10 9 9 9 7 7 6 8 6 3 5 5 5 3 2 1 1 0 1 1 1 2 3 3 3 4 4 4 4 5 5 5 7
8 8 6 8 3 3 2 7 5 9 4 12 11 3 2 4 7 5 2 0 5 8 10 9 7 7 9 7 8 8 7 5 4 5 5 4 4 6 5 5 7 8 7 6 3 4 8 7 8 9 8 7 8 8 7 8 8 7 5 8 6 4 5 5 4 4 3 1 1 1 1 1 2 3 2 3 3 4 5 4 4 4 4 5 6 6
4 5 3 3 5 6 8 9 10 7 4 12 15 9 6 10 5 5 7 6 4 5 8 8 8 8 8 8 8 7 7 7 5 5 5 4 5 5 3 4 3 2 3 4 6 10 10 10 8 7 6 6 7 7 7 10 10 7 7 8 3 5 4 4 4 4 3 2 2 1 2 2 3 3 3 3 3 4 5 5 4 4 4 4 5 7
8 9 8 6 5 9 9 8 2 3 11 10 7 5 9 10 5 8 7 8 8 7 5 5 8 7 9 9 7 6 4 5 8 7 5 7 6 6 7 9 10 9 9 10 8 8 9 13 13 10 6 6 7 6 7 6 10 8 8 4 5 5 6 4 4 4 3 3 3 2 3 2 3 3 3 4 3 4 4 5 3 5 3 3 5 5
3 2 2 3 6 3 3 3 0 1 6 10 6 4 6 6 3 4 6 5 5 6 9 9 8 7 8 7 6 4 6 7 7 6 5 6 6 7 5 4 4 5 5 2 2 7 8 4 4 7 9 6 7 7 6 6 7 11 6 4 5 5 5 5 5 4 4 4 3 3 2 2 4 4 4 4 4 4 4 4 4 4 5 4 5 5
4 2 2 4 3 2 8 2 7 7 5 8 12 7 2 2 5 5 5 6 6 5 7 7 8 8 8 8 9 9 9 8 7 7 5 5 6 7 7 9 9 9 9 10 9 7 6 7 8 10 10 11 8 8 6 6 4 4 5 7 6 6 5 5 5 4 4 4 4 3 3 3 4 4 3 3 3 4 4 3 3 4 5 5 6 6
5 5 3 7 3 5 6 6 4 2 2 5 7 7 7 10 8 5 7 5 5 3 5 6 3 2 4 5 9 8 9 8 7 8 6 7 8 8 8 9 11 7 8 8 5 7 6 7 10 11 11 12 10 8 7 6 6 5 6 5 6 6 6 6 6 6 5 5 4 4 3 4 4 4 4 4 3 4 5 4 3 4 6 6 6 6
4 5 5 4 6 4 0 0 1 2 2 4 6 7 8 7 6 5 6 6 5 5 4 2 4 6 6 9 7 7 6 9 8 8 8 7 7 6 8 10 11 11 8 7 8 10 13 13 13 12 13 11 8 8 7 7 6 6 7 7 6 8 7 7 5 5 5 5 3 4 3 3 3 4 4 4 4 4 5 5 5 6 7 7 7 8
4 7 3 3 3 4 7 7 6 2 4 6 8 11 11 11 6 5 2 4 5 6 7 7 8 6 7 6 5 7 9 10 9 7 9 10 10 10 9 9 8 8 7 7 6 9 9 9 11 11 11 6 7 8 8 8 7 6 7 6 7 7 7 6 5 5 5 5 4 4 3 3 3 3 4 4 5 4 5 7 11 9 8 9 11 16
10 11 7 8 11 5 5 7 8 10 8 7 7 7 9 6 5 7 9 9 8 8 8 7 8 7 7 9 7 9 10 10 12 8 8 9 11 11 10 9 7 7 9 7 7 7 11 11 8 6 7 8 8 9 9 8 7 7 6 7 7 8 6 6 5 5 5 4 5 5 4 4 3 4 4 4 4 4 5 6 5 11 16 15 14 15
Wind_Direction
121 144 181 203 222 201 199 199 208 226 148 134 122 156 220 228 277 286 265 256 29 335 249 253 258 258 271 309 341 356 35 54 48 49 49 41 38 34 30 28 23 31 20 336 355 11 9 10 10 6 14 17 33 30 26 35 32 33 33 46 43 33 38 45 51 49 51 60 70 62 60 67 51 56 53 55 49 46 43 43 45 43 40 37 38 35
77 177 230 226 217 187 206 217 244 8 137 195 236 234 273 176 260 240 256 357 329 167 298 217 337 276 265 357 358 1 50 38 24 46 44 42 37 33 33 30 21 358 355 14 20 9 13 13 11 12 22 22 34 18 27 34 31 35 38 47 43 38 45 44 48 61 62 53 61 84 68 76 49 37 36 46 44 45 47 45 43 41 38 42 41 35
176 203 235 237 212 95 90 174 197 203 236 213 209 249 297 261 259 278 275 344 283 137 264 329 310 276 310 59 33 50 63 57 51 63 52 65 43 33 28 28 23 28 22 21 17 14 15 12 13 17 24 30 32 29 32 28 39 36 41 42 47 43 47 45 44 58 65 62 60 70 68 66 77 58 58 61 51 47 49 47 43 42 41 38 41 37
259 277 241 241 118 185 324 110 143 154 132 212 225 198 238 218 15 295 292 12 21 146 275 349 317 286 86 57 60 33 66 87 68 71 67 62 69 56 45 37 36 34 27 27 16 13 12 14 12 19 29 23 30 31 30 30 38 41 42 44 51 50 51 51 44 61 65 75 79 75 77 70 68 67 57 61 48 43 44 42 40 41 40 43 47 42
214 217 292 132 173 166 225 167 146 167 244 247 198 218 244 213 228 190 248 318 299 24 66 310 297 296 332 168 54 90 97 85 44 55 53 45 50 65 72 54 42 45 28 28 20 17 16 17 13 19 26 26 36 34 33 31 39 49 46 48 55 55 56 57 60 67 77 79 69 77 79 76 73 52 46 45 39 38 45 48 39 34 38 43 46 42
279 264 109 73 99 177 195 233 211 169 245 300 225 208 222 212 232 256 333 1 8 333 350 62 340 317 294 272 182 183 88 65 29 68 46 38 35 36 48 41 29 38 40 44 34 20 12 13 11 25 28 32 35 39 30 34 48 58 58 58 60 61 56 55 56 66 72 69 74 64 57 54 58 55 43 43 38 35 39 45 44 44 40 41 44 40
212 273 164 204 170 151 185 210 236 165 192 190 270 206 219 217 200 173 183 100 279 167 339 32 90 265 326 324 193 163 126 97 56 66 58 44 42 41 46 42 36 34 27 30 36 27 31 14 30 34 30 16 37 27 24 48 54 59 64 63 62 62 60 53 54 58 74 72 73 78 80 80 77 84 66 68 56 61 51 53 48 45 41 40 43 39
149 306 83 83 147 164 168 238 234 155 136 229 256 128 164 161 183 209 162 182 223 256 299 15 158 238 308 277 49 150 127 105 86 62 58 63 63 49 60 50 45 36 38 43 37 34 29 28 38 45 15 14 17 9 40 61 57 62 64 67 66 63 63 57 61 64 63 83 82 83 82 78 76 76 87 72 70 64 61 58 49 46 44 42 44 43
149 184 162 161 172 176 219 204 181 164 146 219 231 127 144 166 181 144 137 164 230 38 292 314 266 320 257 263 14 165 172 208 207 179 158 144 121 105 70 65 54 52 49 52 52 37 28 36 41 37 37 358 14 24 56 61 66 70 71 74 71 66 66 61 64 71 65 74 79 83 87 84 73 77 76 77 64 62 52 60 45 46 40 41 43 45
313 195 215 166 151 220 213 278 173 163 207 234 125 95 82 77 68 102 97 101 349 62 263 263 183 229 277 273 349 7 272 261 212 204 177 177 171 172 132 94 81 63 53 48 50 48 44 33 33 29 37 24 11 24 52 58 68 70 76 77 73 66 63 65 66 71 71 70 75 77 76 84 80 73 70 63 57 51 45 54 43 37 37 31 34 35
252 304 158 120 192 203 131 52 149 295 79 130 91 64 23 39 31 25 61 88 66 271 243 225 231 187 289 270 211 149 218 191 145 115 168 174 200 207 203 155 136 105 77 69 62 55 61 40 38 33 65 38 25 26 51 59 61 69 72 80 74 69 70 66 68 73 73 73 71 76 76 77 80 74 73 68 57 52 50 51 43 39 32 33 34 30
355 21 240 246 105 106 102 82 33 101 111 123 103 123 59 352 8 34 344 32 140 263 261 259 228 171 189 286 280 232 115 194 170 178 174 179 191 194 187 189 171 152 114 84 82 69 65 66 49 48 59 43 38 49 55 58 61 70 72 82 83 69 70 71 75 77 76 77 76 78 78 78 76 77 72 71 68 58 59 53 49 42 43 37 35 32
267 236 231 310 207 137 110 84 7 34 23 82 88 64 98 264 30 318 14 269 212 218 198 339 163 129 238 226 205 195 265 274 251 206 179 171 183 187 187 186 178 161 131 116 117 99 82 88 87 75 70 68 54 67 70 66 72 73 75 81 88 75 70 74 76 80 79 78 77 80 80 78 75 73 75 75 74 60 60 50 47 38 39 28 33 28
278 286 276 229 84 224 136 143 173 84 204 118 150 139 93 214 50 266 272 268 309 288 268 90 71 276 245 288 173 244 254 251 267 245 191 178 175 177 177 173 165 155 151 152 127 123 122 114 102 104 114 102 92 78 76 76 78 80 83 81 88 86 74 79 79 80 83 80 83 83 86 85 84 77 76 75 77 71 69 61 56 50 41 38 38 30
201 334 264 149 231 170 176 184 180 161 161 202 118 148 182 141 154 237 188 221 236 208 276 277 63 229 140 226 187 244 278 291 265 215 177 163 156 152 152 154 156 153 157 158 156 154 158 157 149 139 143 145 117 102 92 92 95 96 93 90 94 93 78 83 84 84 83 83 80 77 78 75 70 70 65 63 65 61 56 46 46 40 33 33 23 25
198 223 262 296 283 139 179 295 112 99 55 153 162 83 100 226 140 236 198 166 253 335 326 204 209 190 171 269 271 317 4 18 34 115 137 145 146 146 158 177 180 175 172 169 171 183 180 178 186 193 182 173 141 125 114 104 109 102 99 96 94 100 103 95 91 85 89 86 80 74 74 70 69 67 68 64 58 57 59 51 51 36 35 26 25 19
58 290 286 331 40 102 203 143 76 140 206 214 109 193 208 136 105 88 56 75 73 53 254 152 302 306 299 322 11 326 52 19 87 133 146 158 166 169 187 188 184 184 182 186 188 186 192 197 212 203 196 177 156 139 133 129 123 116 112 109 103 101 99 96 96 99 93 89 84 74 73 70 69 67 64 64 58 58 55 60 47 46 29 24 29 21
139 232 285 105 213 341 222 178 105 31 143 96 174 232 166 146 119 133 240 7 65 212 271 87 216 261 115 278 66 32 79 202 171 169 175 174 176 187 200 189 190 191 192 193 197 202 199 199 199 204 205 192 172 156 143 137 133 121 122 121 116 111 106 101 97 93 93 92 87 83 73 65 65 66 65 65 69 66 69 59 60 53 41 35 26 27
116 301 300 355 131 313 358 98 39 356 35 148 193 207 118 232 185 316 86 276 276 257 272 295 310 264 185 234 90 242 193 203 194 193 177 195 198 202 198 198 198 194 189 194 199 200 203 203 203 196 194 194 183 169 156 147 137 125 120 121 119 118 117 115 103 93 78 79 80 77 74 76 71 67 64 60 64 65 60 53 43 38 35 35 31 26
52 187 290 353 118 274 25 93 198 210 348 52 85 70 336 111 176 122 198 186 117 270 41 288 94 247 194 217 183 208 197 181 180 185 203 200 196 193 196 194 191 189 193 195 195 197 199 201 200 194 187 185 180 168 170 154 142 134 133 122 109 96 91 83 76 77 78 72 85 85 82 69 69 65 68 62 59 52 47 40 34 30 30 27 23 25
145 128 231 291 298 88 178 191 212 165 158 93 108 263 153 18 230 94 7 142 189 191 210 272 293 271 261 207 180 210 182 181 180 190 197 200 201 202 197 191 189 192 196 194 191 194 195 195 197 196 197 191 181 168 161 157 150 148 130 109 102 101 86 77 78 89 94 94 88 86 74 64 58 52 53 51 45 47 39 33 30 29 21 16 25 16
96 167 197 274 142 214 234 251 191 173 187 174 170 196 179 131 168 199 253 75 108 146 239 159 262 271 265 156 212 199 199 181 198 186 191 199 195 194 198 195 187 193 199 194 194 191 189 191 190 193 189 182 164 170 161 162 134 117 110 113 110 90 75 98 82 101 106 88 78 72 62 53 49 44 43 47 39 38 33 26 26 20 16 26 13 17
155 146 106 222 199 210 227 165 252 123 105 166 174 240 188 196 150 173 232 232 39 251 106 187 340 268 235 197 204 229 192 209 191 181 203 196 195 198 199 188 193 198 194 192 191 193 194 189 186 183 182 180 179 176 166 147 131 123 117 107 95 96 78 90 98 91 89 80 74 68 66 63 57 55 58 56 49 44 41 35 33 28 26 26 18 15
92 109 348 282 320 318 323 312 88 93 118 35 258 99 108 198 185 205 213 178 174 214 185 319 247 270 317 162 238 244 229 218 189 189 195 194 200 204 192 186 191 194 201 199 193 185 179 181 181 183 186 184 184 178 159 141 118 105 102 108 102 94 103 89 81 84 82 86 82 80 67 58 51 53 47 45 38 37 32 33 28 21 25 20 12 13
129 243 154 239 333 337 341 340 13 13 43 208 210 207 194 181 143 145 89 79 215 210 185 147 250 251 252 7 4 36 83 182 209 209 187 194 199 194 188 187 191 204 204 200 191 179 176 185 188 192 186 185 185 166 148 140 130 118 108 107 104 98 87 84 88 94 97 95 80 58 57 48 43 45 38 34 29 26 25 23 19 15 14 10 8 4
162 191 150 195 228 241 240 190 227 239 221 247 8 338 281 187 161 129 229 172 231 192 150 203 250 243 289 357 327 7 87 164 239 215 230 223 184 180 179 189 205 206 205 186 175 175 189 192 190 184 190 190 181 168 156 138 130 119 113 98 101 114 104 105 119 112 88 74 68 56 50 42 39 41 36 30 26 27 26 22 17 12 8 8 359 353
176 154 198 230 213 234 235 164 296 103 66 187 243 165 241 223 250 211 81 178 223 152 194 228 241 201 267 349 283 270 176 199 215 208 204 200 201 202 199 203 206 202 182 180 182 184 186 189 193 196 191 188 179 167 161 149 141 133 122 113 112 132 137 139 106 84 80 72 72 64 53 41 41 43 39 32 32 30 27 22 10 8 4 357 359 353
91 208 220 219 240 250 189 168 217 172 179 208 202 237 200 198 181 181 199 231 79 114 245 190 92 129 254 206 236 253 242 248 256 221 214 233 220 205 208 203 161 152 174 175 184 189 193 196 196 193 193 182 176 159 154 152 151 151 146 145 157 154 123 103 92 85 81 78 70 67 51 44 36 51 38 39 35 30 27 12 6 5 356 356 355 357
161 208 224 198 244 248 275 172 137 197 224 210 211 220 225 211 179 193 216 224 170 225 249 238 164 200 245 206 199 212 205 204 208 206 209 212 203 178 165 176 185 192 190 190 196 193 195 199 199 194 186 181 161 163 158 151 146 141 141 147 136 119 107 107 97 92 88 82 80 73 67 43 50 57 42 44 30 35 17 6 2 354 346 349 349 349
103 229 205 183 228 228 110 116 21 184 247 277 240 237 236 224 211 206 227 216 204 234 268 110 165 232 236 211 176 221 219 203 231 228 122 184 206 185 191 201 204 207 198 199 198 199 203 204 196 190 181 175 174 167 166 164 166 168 158 150 142 119 111 102 98 103 99 95 92 79 64 69 68 63 48 50 40 37 7 352 351 333 332 341 331 321
149 274 111 140 192 240 138 123 66 102 150 251 260 253 243 192 167 207 210 216 75 313 277 269 264 264 254 159 206 244 231 258 309 264 213 225 207 188 200 214 219 215 210 207 205 207 206 204 198 182 183 186 181 177 171 176 171 163 149 148 140 128 123 110 109 101 108 113 111 120 106 104 92 82 75 76 47 29 350 346 328 318 310 321 312 309
156 256 59 145 199 274 112 139 123 77 64 243 270 258 226 145 218 206 192 199 194 223 236 253 259 258 276 124 160 98 173 200 221 237 237 239 224 210 211 226 223 221 215 211 209 204 200 199 196 191 194 190 184 177 177 173 169 162 162 153 145 134 124 113 115 123 122 125 131 129 122 122 122 136 130 107 21 354 318 304 309 312 315 314 315 315
181 146 159 185 209 204 242 112 133 93 352 294 250 246 223 218 226 63 295 220 216 197 203 233 246 256 198 160 142 248 211 231 247 245 248 255 245 213 222 227 229 228 221 214 209 206 202 199 199 198 193 182 183 184 188 170 161 174 162 156 146 130 128 127 122 120 129 137 141 133 138 149 140 161 143 108 18 300 316 337 326 333 336 332 321 316
149 167 192 181 217 131 18 164 115 126 239 240 20 131 165 203 204 218 236 229 223 168 211 215 254 51 138 161 203 243 231 224 218 239 215 212 230 239 245 242 242 235 230 223 212 207 207 203 202 198 192 190 189 182 168 170 163 150 140 136 133 137 136 122 120 134 150 151 150 149 156 148 142 112 61 27 356 351 347 346 339 325 312 312 321 322
179 190 201 161 156 179 155 120 170 213 236 42 217 316 157 161 158 201 225 242 215 226 247 273 269 269 243 230 228 243 244 248 250 237 254 231 209 221 228 237 237 235 232 221 214 210 203 198 195 186 184 190 178 158 145 142 128 129 130 137 134 136 124 124 144 157 160 163 161 153 131 93 63 37 6 357 353 351 340 333 323 326 323 325 319 319
169 166 148 67 117 64 118 190 213 235 149 217 5 14 38 81 63 85 314 266 225 213 213 229 251 242 244 250 265 232 241 266 277 247 229 230 209 210 215 227 231 224 225 218 208 210 195 191 189 189 190 158 145 157 160 153 141 138 138 127 133 127 130 145 157 167 170 173 152 124 110 95 71 23 353 341 344 344 331 327 321 321 320 316 304 284
171 117 163 177 178 165 205 195 237 357 309 259 181 220 171 164 181 164 235 268 235 194 181 204 238 252 248 256 251 303 325 359 323 288 227 209 213 214 211 226 218 219 221 228 209 215 206 196 187 173 138 148 157 154 159 142 138 134 132 133 128 136 152 157 169 181 186 169 141 131 133 116 87 353 335 336 338 330 325 324 320 314 308 309 300 302
315 175 207 182 243 159 184 231 271 256 249 252 251 224 116 165 138 166 124 280 299 221 187 183 220 241 225 223 110 158 69 50 307 285 274 254 208 210 227 235 242 231 226 218 180 150 138 137 119 129 149 148 151 150 136 140 139 137 136 142 148 153 173 174 194 192 183 154 143 139 132 115 97 356 329 331 323 313 310 304 293 290 297 298 305 301
345 110 340 201 232 72 181 226 224 238 247 257 247 170 119 118 123 108 72 283 261 207 212 178 215 221 188 174 188 141 92 195 252 259 270 252 242 210 215 233 221 225 212 194 182 173 162 152 146 139 135 147 157 156 142 142 142 141 149 158 170 175 180 200 198 190 170 149 138 132 128 127 101 321 314 309 302 304 301 301 294 292 292 278 282 286
40 10 157 252 217 216 219 231 235 223 256 263 155 165 172 121 104 70 17 275 250 210 190 175 205 203 204 182 145 147 150 198 245 256 234 220 217 214 201 222 212 214 220 200 201 166 145 132 121 135 157 177 176 147 150 147 147 151 158 176 167 183 205 206 196 178 137 127 126 129 129 133 144 287 294 295 300 295 285 288 296 292 295 292 283 290
180 262 202 216 217 224 226 245 268 276 257 173 171 161 137 134 81 101 227 231 233 205 201 185 210 200 163 151 164 156 226 192 205 219 228 222 101 249 228 221 214 199 197 185 179 142 151 168 171 178 185 177 153 153 154 152 148 170 176 170 174 209 211 188 161 141 129 123 120 127 146 141 194 285 286 275 279 285 290 286 290 297 295 295 294 289
342 83 329 337 229 221 232 243 239 273 237 154 261 148 164 100 209 217 237 195 156 200 200 196 200 197 166 172 183 204 220 227 241 280 287 235 210 266 205 166 112 79 83 142 146 152 154 165 168 137 132 151 156 160 161 159 168 176 171 173 206 212 163 154 149 132 119 127 141 152 183 260 288 265 268 286 296 299 287 278 278 284 289 289 297 302
193 140 208 201 208 56 167 234 265 257 250 129 135 59 274 160 236 193 152 274 189 176 177 210 205 202 175 201 207 211 235 260 239 238 254 255 241 246 208 184 185 177 160 140 155 189 162 166 185 193 177 157 162 163 167 160 170 176 173 196 212 157 154 150 136 123 130 139 175 210 254 274 277 285 294 291 285 284 288 290 292 287 289 298 302 299
211 103 247 256 189 167 196 203 213 222 122 161 141 177 208 208 188 149 137 199 217 178 186 185 220 202 192 197 209 229 234 242 279 260 257 265 245 253 233 213 228 221 216 217 193 177 175 186 187 176 161 163 164 169 168 169 173 178 184 210 148 153 144 136 122 124 139 178 208 227 257 259 273 273 275 274 280 279 278 285 282 284 283 291 295 300
207 188 179 183 211 157 200 214 197 171 161 192 175 185 197 209 158 181 158 178 179 227 193 180 215 212 198 204 218 213 234 229 229 233 209 236 233 225 219 212 205 205 202 200 204 184 182 187 187 173 164 173 173 176 175 180 173 175 195 193 152 160 149 140 131 143 180 207 223 240 246 267 263 265 265 262 253 266 271 282 285 299 285 288 292 286
300 166 176 83 255 272 287 175 129 54 168 195 239 213 197 221 198 150 179 192 224 192 169 189 213 204 202 198 192 245 216 235 228 244 232 241 236 239 231 247 254 239 234 220 184 181 196 170 140 162 176 182 184 179 179 186 172 179 200 153 160 150 144 139 144 168 206 218 226 235 239 259 274 264 254 257 249 241 250 261 284 286 296 291 278 274
241 133 131 195 268 120 259 97 152 190 206 198 212 231 239 263 218 197 212 221 224 175 197 215 202 197 190 173 188 210 228 227 234 246 236 236 238 235 219 219 229 218 210 209 211 159 166 170 171 184 185 192 194 185 184 179 186 165 140 155 148 140 135 144 161 187 202 221 227 241 225 229 259 268 262 253 251 248 252 261 269 275 280 273 274 273
309 175 144 229 219 178 243 203 222 342 246 232 221 221 238 242 239 216 218 229 231 208 192 215 204 243 139 179 203 203 231 230 216 240 240 232 234 232 224 223 228 227 225 212 173 170 172 185 195 195 191 200 192 183 176 174 175 162 147 147 145 139 142 161 176 190 207 219 214 225 223 230 249 252 270 270 265 275 279 270 254 261 260 258 259 268
181 116 222 181 191 245 17 284 214 335 333 266 239 240 241 240 238 231 214 230 232 237 248 251 190 205 182 214 193 198 225 249 227 226 234 242 240 235 230 225 224 224 215 182 191 177 191 195 200 202 197 202 172 169 171 178 176 170 164 159 151 150 157 178 189 193 206 216 203 230 229 229 240 252 259 275 269 253 239 256 266 262 265 243 229 237
91 235 191 92 222 221 182 213 150 151 251 249 227 226 231 237 225 241 241 239 235 233 231 229 244 221 215 220 188 185 209 238 240 216 229 235 234 233 233 231 228 223 220 207 177 193 202 202 202 201 200 184 160 170 176 179 180 177 173 160 159 158 169 180 182 191 213 207 209 232 231 239 242 243 252 259 274 280 277 250 261 262 259 263 268 267
190 219 134 199 221 235 231 211 191 206 228 232 224 221 222 226 190 220 236 236 239 228 225 219 240 251 234 237 207 197 217 228 242 219 222 238 239 232 228 224 220 214 216 185 172 198 204 207 198 187 186 180 168 175 178 177 176 173 174 165 163 166 174 169 183 199 213 206 219 219 220 223 242 248 251 255 263 271 286 299 285 287 288 284 284 283